D-SAT (42794 NORAD) Tracking and Keplerian Element Data

This shows tracking and keplerian element data for the satellite.

Feedback or suggestion? Click here.




ElementValue
Catalog42794
NameD-SAT
Epoch Orbit5893
Epoch Day203.14548644
Epoch Year2018
RAAN256.4782
Inclination97.5888
Eccentricity0.0127499
Argument of Perigee165.2461
Mean Anonmoly195.2535
Mean Motion14.90892459
Decay Rate2.11E-06
L11 42794U 17036AF 18203.14548644 .00000211 00000-0 23834-4 0 9991
L22 42794 97.5888 256.4782 0127499 165.2461 195.2535 14.90892459 58930

Live tracking and technical data element details for D-SAT (NORAD 42794). D-SAT can be tracked NOW for your location showing map with azimuth and elevation plus other details from your city location.

Track the satellite on the map from your city or location and see movement details for azimuth, elevation, latitude, longitude, range, height, and movement on the map or in text.







IsCatalogInMostPopularTable: catalog: 42794, numindb: 100
Update: records affected: 1



GetName: 42794 D-SAT

Hit Count: updated at: Mon, 23 Jul 2018 07:51:09 GMT